Vertical_Velocity
0 1 0 -0 -0 -0 -0 -1 -2 -3 -3 -3 -3 -2 -2 -1 -1 -2 -2 -1 -1 -1 -0 0 1 1 1 1 0 -0 -0 -1 -0 -0 -0 -0 -0 -0 -0 -0 -0 -1 -1 -1 -1 -0 -1 -1 -1 -0 0 0 -0 -1 -1 -1 -1 -1 -0 -1 -1 -0 -0 -0 -1 -1 -1 -1 -1
1 1 0 -0 -1 -1 -1 -1 -2 -2 -2 -2 -2 -2 -1 -1 -1 -2 -2 -2 -2 -1 -0 0 1 1 1 1 0 -0 -1 -1 -1 -1 -0 -0 -0 -0 -0 -0 -1 -1 -1 -1 -1 -0 -0 -0 -0 -0 0 -0 -0 -1 -1 -0 0 1 1 1 2 3 2 1 0 0 -0 -2 -2
1 0 -0 -1 -1 -1 -0 -1 -1 -2 -2 -2 -2 -1 -1 -1 -1 -2 -2 -2 -2 -1 -0 0 1 1 1 0 -0 -1 -1 -1 -1 -1 -1 -0 -0 -0 -0 -1 -1 -1 -1 -1 -1 -0 -0 -0 -0 -0 -0 0 1 1 0 0 0 0 -0 -1 2 4 4 1 -1 -2 -2 -2 -2
1 0 -0 -1 -0 -0 -0 -0 -1 -2 -2 -2 -1 -0 -1 -1 -1 -2 -2 -2 -1 -1 -0 0 0 0 0 -0 -0 -1 -1 -1 -1 -1 -1 -1 -1 -1 -1 -1 -1 -1 -1 -1 -1 -1 -0 -0 -0 -1 -1 -1 1 2 2 2 -0 -2 -3 -3 -2 -1 -0 -1 -2 -1 -1 -0 -1
0 0 -0 -0 -0 -0 -0 -1 -1 -2 -2 -1 -0 -0 -1 -1 -1 -1 -1 -1 -1 -1 -1 -0 -0 -0 -0 -0 -0 -0 -0 -0 -1 -1 -1 -1 -1 -1 -1 -1 -1 -1 -1 -1 -1 -1 -1 -1 -1 -1 -2 -2 -1 -1 -1 -1 -1 -2 -3 -3 -2 -2 -1 -1 -1 -0 1 2 -0
0 0 0 1 0 -0 -0 -1 -1 -1 -1 -0 0 -0 -1 -1 -1 -1 -1 -1 -1 -1 -1 -1 -1 -1 -1 -0 -0 -0 -0 -0 -0 -0 -1 -1 -1 -1 -1 -1 -1 -1 -1 -1 -1 -1 -1 -1 -1 -1 -1 -2 -2 -1 -1 -0 -0 -0 -1 -1 -1 -1 -1 -0 -1 -0 0 1 -0
0 1 1 1 1 -0 -0 -1 -1 -1 -0 0 0 -0 -1 -1 -1 -1 -1 -1 -1 -1 -1 -1 -1 -1 -1 -1 -0 -0 0 0 -0 -0 -0 -1 -1 -1 -1 -1 -1 -1 -1 -1 -1 -1 -1 -1 -2 -1 -1 -2 -2 -1 -1 0 1 1 0 -0 -0 -1 -1 -1 -1 -0 -0 -1 -1
1 1 1 1 1 -0 -1 -1 -1 -0 0 0 0 -0 -1 -1 -1 -1 -1 -1 -1 -1 -1 -1 -1 -1 -1 -1 -0 -0 0 0 -0 -0 -0 -0 -1 -0 -0 -0 -0 -0 -1 -1 -1 -1 -1 -1 -1 -1 -1 -2 -1 -1 -1 -1 -0 -1 -1 -1 -1 -1 -1 -1 -0 -0 -1 -2 -2
1 1 1 1 0 -0 -1 -0 -0 0 1 0 -0 -0 -0 -1 -1 -1 -1 -1 -1 -1 -1 -1 -2 -1 -1 -1 -1 -0 -0 0 0 -0 -0 -0 -0 -0 -0 -0 -0 -1 -1 -1 -2 -2 -1 -1 -1 -1 -1 -1 -1 -1 -1 -1 -2 -2 -2 -2 -1 -1 -1 -1 -1 -0 -1 -1 -1
1 1 1 1 0 -0 -0 0 0 1 1 0 -0 -0 -0 -1 -1 -1 -1 -1 -1 -1 -2 -2 -1 -1 -1 -1 -1 -1 -0 -0 -0 -0 -0 -0 -0 -0 -1 -1 -1 -1 -1 -1 -2 -2 -2 -2 -2 -2 -1 -1 -1 -1 -1 -2 -2 -2 -2 -1 -1 -1 -1 -1 -1 -1 -1 -1 -0
1 1 1 1 0 0 0 1 1 0 0 0 -0 -0 -0 -1 -1 -1 -1 -1 -1 -2 -2 -2 -1 -1 -1 -1 -1 -1 -1 -0 -0 -0 -0 -1 -1 -1 -1 -1 -1 -1 -1 -1 -2 -3 -3 -3 -3 -3 -2 -2 -2 -2 -2 -1 -2 -2 -2 -1 -1 -1 -1 -1 -1 -1 -1 -0 -0
1 1 1 1 1 0 0 1 0 0 -0 -0 -0 -0 -0 -1 -1 -1 -1 -1 -2 -2 -2 -2 -1 -1 -1 -1 -1 -1 -1 -1 -1 -1 -1 -1 -1 -2 -2 -2 -1 -1 -1 -1 -1 -2 -2 -3 -3 -3 -3 -3 -3 -3 -2 -2 -2 -2 -2 -2 -1 -1 -1 -1 -1 -1 -0 -0 -0
1 1 1 1 1 1 0 0 0 -0 -0 -0 -0 -0 -0 -0 -1 -1 -1 -2 -2 -2 -2 -1 -1 -1 -0 -0 -1 -1 -1 -1 -1 -1 -2 -2 -2 -2 -2 -2 -2 -1 -1 -0 -0 -0 -1 -1 -2 -3 -3 -3 -3 -3 -3 -3 -2 -2 -2 -2 -1 -1 -1 -0 -0 -0 -0 -0 -0
1 1 1 1 1 0 0 -0 -0 -0 -0 -0 -0 -0 -0 -0 -1 -1 -1 -1 -2 -2 -2 -1 -1 -1 -0 -0 -0 -0 -1 -1 -1 -1 -2 -2 -2 -2 -2 -2 -2 -2 -1 -1 -0 -0 -0 -0 -1 -1 -2 -2 -2 -2 -2 -2 -2 -1 -1 -1 -1 -1 -0 -0 -0 -0 -0 -0 -1
1 1 1 1 0 0 -0 -0 -0 -0 -0 -0 -0 -0 -0 -0 -1 -1 -1 -1 -2 -2 -1 -1 -1 -1 -1 -1 -1 -1 -1 -1 -1 -1 -2 -2 -2 -3 -3 -3 -3 -3 -2 -2 -1 -1 -1 -1 -0 -0 -1 -1 -1 -1 -1 -1 -1 -1 -0 -0 -0 -0 -0 -0 -0 -0 -0 -1 -1
1 0 0 0 0 -0 -0 -0 -0 -0 -0 -0 -0 -0 -1 -1 -1 -1 -1 -1 -1 -1 -1 -1 -1 -0 -0 -0 -1 -1 -1 -1 -1 -1 -2 -2 -2 -2 -2 -3 -3 -3 -3 -2 -2 -1 -1 -1 -1 -1 -0 -0 -1 -1 -1 -1 -0 -0 -0 -0 -0 -0 -0 -1 -1 -1 -1 -1 -1
0 0 -0 -0 -0 -0 -0 -0 -0 -0 -0 -0 -0 -1 -1 -1 -1 -1 -1 -1 -1 -1 -1 -1 -0 -0 -0 -0 -1 -1 -1 -1 -1 -1 -2 -2 -2 -2 -2 -2 -2 -3 -3 -2 -2 -2 -1 -1 -1 -1 -0 -0 -0 -0 -0 -0 -0 -0 -0 -0 -1 -1 -1 -1 -1 -1 -1 -1 -1
0 -0 -0 0 0 0 0 0 -0 -0 -0 -0 -1 -1 -1 -1 -1 -1 -1 -1 -1 -1 -0 -0 -0 -0 -1 -1 -1 -1 -2 -2 -2 -2 -2 -2 -2 -2 -2 -2 -2 -2 -2 -2 -2 -2 -2 -1 -1 -1 -1 -0 -0 -0 -0 -0 -0 -1 -1 -1 -1 -1 -1 -1 -1 -1 -1 -1 -1
0 0 -0 0 0 0 0 0 -0 -0 -0 -0 -1 -1 -1 -1 -1 -1 -0 -0 -0 -0 -0 0 -0 -0 -1 -1 -1 -2 -2 -2 -2 -2 -2 -2 -2 -2 -2 -2 -2 -2 -2 -2 -2 -2 -2 -2 -1 -1 -1 -1 -1 -1 -1 -1 -1 -1 -1 -1 -1 -1 -1 -1 -1 -1 -1 -1 -1
0 0 0 0 1 1 0 -0 -0 -0 -0 -0 -1 -1 -1 -1 -1 -0 -0 0 -0 -0 -0 -0 -0 -1 -1 -1 -2 -2 -2 -2 -2 -2 -2 -2 -2 -2 -2 -2 -1 -1 -2 -2 -2 -2 -2 -2 -2 -2 -2 -2 -2 -1 -1 -1 -1 -1 -1 -1 -1 -1 -1 -1 -1 -1 -1 -1 -1
1 1 1 1 1 1 0 -0 -0 -0 -0 -0 -1 -1 -1 -1 -0 -0 0 0 0 0 -0 -0 -1 -1 -1 -1 -2 -2 -2 -2 -2 -2 -2 -2 -2 -2 -1 -1 -1 -1 -1 -1 -1 -1 -1 -1 -1 -1 -1 -1 -1 -1 -1 -1 -1 -1 -1 -1 -1 -1 -1 -1 -1 -1 -1 -1 -0
1 1 1 1 1 0 0 -0 -0 -0 -0 -1 -1 -1 -1 -0 -0 0 0 0 0 -0 -0 -1 -1 -1 -1 -1 -2 -2 -2 -2 -2 -2 -2 -2 -2 -1 -1 -1 -1 -1 -1 -1 -1 -1 -1 -1 -1 -1 -0 -0 -0 -1 -1 -1 -1 -1 -1 -1 -2 -2 -2 -1 -1 -1 -1 -1 -1
1 1 1 1 1 0 0 -0 -0 -0 -0 -1 -1 -0 -0 -0 0 0 0 0 0 -0 -0 -1 -1 -1 -1 -1 -2 -2 -2 -2 -2 -2 -2 -2 -2 -2 -2 -2 -2 -2 -2 -2 -1 -1 -1 -1 -0 -0 -0 -0 -0 -1 -1 -2 -2 -2 -2 -2 -2 -2 -2 -2 -2 -1 -1 -1 -1
1 1 1 1 0 0 0 -0 -0 -0 -1 -0 -0 -0 0 0 0 0 0 -0 -0 -0 -0 -1 -1 -1 -1 -1 -1 -1 -1 -1 -1 -1 -1 -2 -2 -2 -2 -2 -2 -2 -2 -2 -2 -1 -1 -1 -0 -0 -0 -1 -1 -2 -2 -2 -2 -2 -2 -2 -2 -1 -1 -1 -1 -1 -1 -1 -1
1 1 1 0 0 -0 -0 -0 -0 -0 -0 -0 -0 0 0 0 -0 -0 -0 -0 -0 -0 -1 -1 -1 -1 -1 -1 -1 -1 -1 -1 -1 -1 -1 -1 -2 -2 -2 -2 -2 -2 -2 -2 -2 -1 -1 -1 -0 -0 -1 -1 -2 -2 -2 -2 -1 -1 -1 -0 -1 -1 -1 -1 -1 -1 -1 -1 -0
1 1 0 0 -0 -0 -0 -0 -0 -0 0 0 0 0 0 -0 -0 -0 -0 -0 -0 -0 -1 -1 -1 -1 -1 -1 -1 -1 -1 -1 -1 -1 -1 -1 -2 -2 -2 -2 -2 -2 -2 -2 -1 -1 -1 -1 -1 -1 -1 -1 -2 -2 -2 -1 -1 -1 -0 -0 -0 -1 -1 -1 -1 -1 -0 -0 -0
0 0 0 -0 0 0 -0 -0 -0 0 0 0 0 0 0 -0 -0 -0 -0 -0 -0 -1 -1 -1 -1 -1 -1 -1 -1 -1 -1 -1 -1 -2 -2 -2 -2 -2 -2 -2 -2 -2 -2 -2 -2 -2 -1 -1 -1 -1 -1 -1 -1 -1 -1 -1 -1 -1 -1 -1 -1 -1 -1 -1 -0 -0 -0 -0 0
0 0 -0 0 0 0 0 0 0 0 0 0 0 0 0 -0 -0 -0 -0 -0 -1 -1 -1 -1 -1 -1 -1 -0 -1 -1 -1 -1 -1 -2 -2 -2 -2 -2 -2 -2 -2 -2 -2 -2 -2 -2 -2 -1 -1 -1 -1 -1 -1 -1 -1 -1 -1 -1 -1 -1 -1 -1 -0 -0 -0 -0 -0 -0 -0
-0 0 0 0 0 0 0 1 1 1 0 0 0 0 0 -0 -0 -0 -0 -0 -1 -1 -0 -0 -0 -0 -1 -1 -1 -1 -1 -1 -1 -1 -2 -2 -2 -2 -2 -2 -2 -2 -2 -2 -2 -2 -1 -1 -1 -1 -1 -1 -1 -1 -1 -1 -1 -1 -0 -0 -0 -0 -0 -0 -0 -0 -0 -0 -0
0 0 1 1 1 1 1 1 0 0 0 0 0 0 0 0 -0 -0 -0 -0 -0 -0 -0 -0 -0 -0 -1 -1 -1 -1 -1 -1 -1 -2 -2 -2 -2 -2 -2 -2 -2 -2 -2 -2 -2 -1 -1 -0 -0 -0 -1 -1 -1 -1 -0 -0 -0 -0 -0 -0 -0 -0 -0 -0 -0 -1 -1 -1 -1
1 1 1 1 1 1 1 0 0 0 0 0 0 0 0 0 0 -0 -0 -0 -0 -0 -0 -0 -0 -0 -1 -1 -1 -1 -1 -1 -1 -2 -2 -2 -2 -2 -2 -2 -2 -2 -2 -2 -2 -1 -1 -0 -0 -0 -1 -1 -1 -1 -1 -0 -0 -0 -0 -0 -0 -0 -0 -0 -1 -1 -1 -1 -1
1 1 1 1 1 1 1 0 0 0 0 0 1 1 1 0 0 0 -0 0 0 0 0 -0 -0 -1 -1 -1 -1 -1 -1 -1 -1 -2 -2 -2 -2 -2 -2 -2 -2 -2 -1 -1 -1 -1 -1 -1 -1 -1 -1 -2 -1 -1 -1 -1 -1 -1 -1 -0 -0 -1 -1 -1 -1 -1 -1 -1 -1
1 1 1 1 1 1 0 0 0 0 0 0 1 1 1 1 0 0 0 0 0 0 0 -0 -0 -1 -1 -1 -1 -1 -1 -1 -2 -2 -1 -1 -2 -1 -1 -1 -1 -1 -1 -1 -1 -1 -1 -1 -1 -1 -1 -2 -2 -1 -1 -1 -1 -1 -1 -1 -1 -1 -1 -1 -1 -1 -1 -1 -1
1 1 1 1 1 0 0 0 0 0 1 1 1 1 1 1 1 1 0 0 0 0 0 -0 -0 -1 -1 -1 -1 -1 -1 -2 -2 -2 -2 -2 -2 -1 -1 -1 -1 -1 -1 -1 -1 -1 -1 -1 -1 -1 -1 -1 -1 -1 -1 -1 -1 -1 -1 -1 -1 -1 -1 -1 -1 -1 -1 -1 -1
1 1 1 1 0 0 0 0 0 1 1 1 1 1 1 1 1 1 1 0 0 0 -0 -0 -1 -1 -1 -1 -1 -1 -1 -2 -2 -2 -2 -2 -2 -2 -2 -2 -1 -1 -1 -1 -0 -0 -0 -1 -1 -1 -1 -1 -1 -1 -1 -1 -1 -1 -1 -1 -2 -2 -1 -1 -1 -1 -1 -1 -1
1 1 1 1 0 0 0 0 1 1 1 1 1 1 1 1 1 1 1 1 0 0 -0 -1 -1 -1 -1 -1 -1 -1 -2 -2 -2 -2 -2 -2 -2 -2 -2 -2 -1 -1 -1 -0 -0 -0 -0 -1 -1 -1 -1 -1 -1 -1 -1 -1 -1 -1 -1 -2 -2 -2 -2 -1 -1 -1 -1 -1 -1
1 1 1 1 0 0 0 0 1 1 1 1 1 1 1 1 1 1 1 0 0 -0 -0 -1 -1 -1 -1 -1 -1 -1 -2 -2 -2 -2 -2 -2 -2 -2 -2 -1 -1 -1 -1 -1 -1 -1 -1 -1 -1 -1 -1 -1 -1 -1 -1 -2 -2 -2 -2 -2 -2 -2 -1 -1 -1 -1 -1 -1 -1
1 1 0 0 0 0 0 1 1 1 1 1 1 1 1 1 1 1 0 0 -0 -0 -0 -1 -1 -1 -1 -1 -1 -1 -2 -2 -2 -1 -1 -1 -1 -1 -1 -1 -1 -1 -1 -1 -1 -1 -1 -1 -1 -1 -1 -1 -1 -1 -2 -2 -2 -2 -2 -2 -2 -2 -1 -1 -1 -1 -1 -1 -1
1 1 0 0 0 0 1 1 1 1 1 1 1 1 1 1 1 0 0 -0 -0 -0 -0 -1 -1 -1 -1 -1 -1 -1 -2 -2 -2 -1 -1 -1 -1 -1 -1 -1 -1 -1 -1 -1 -1 -1 -1 -1 -1 -1 -1 -1 -1 -1 -2 -2 -2 -2 -2 -2 -2 -2 -2 -1 -1 -1 -1 -1 -1
1 0 0 0 1 1 1 1 1 1 1 1 1 1 0 0 0 0 -0 -0 -0 -0 -0 -1 -1 -1 -1 -1 -1 -1 -1 -2 -1 -1 -1 -1 -1 -1 -1 -1 -1 -1 -1 -1 -1 -1 -1 -1 -1 -1 -1 -2 -2 -2 -2 -1 -2 -2 -2 -2 -2 -2 -2 -2 -1 -1 -1 -1 -0
0 0 1 1 1 1 1 1 1 1 1 1 1 1 0 0 0 0 -0 -0 -0 -0 -0 -1 -1 -1 -1 -1 -1 -1 -1 -1 -1 -1 -1 -1 -1 -1 -1 -1 -1 -1 -1 -1 -1 -1 -1 -1 -1 -1 -2 -2 -2 -2 -2 -2 -2 -2 -2 -2 -2 -1 -1 -2 -1 -1 -1 -1 -1
Height
5767 5767 5767 5767 5767 5767 5767 5766 5766 5766 5765 5765 5765 5766 5766 5766 5766 5766 5766 5766 5765 5765 5765 5765 5764 5764 5763 5762 5762 5761 5760 5759 5758 5757 5756 5755 5754 5753 5752 5751 5750 5750 5749 5748 5747 5746 5746 5745 5744 5743 5742 5740 5740 5739 5737 5736 5735 5734 5733 5732 5731 5730 5729 5727 5726 5725 5724 5722 5721
5765 5765 5764 5764 5764 5764 5764 5764 5764 5763 5763 5763 5764 5764 5764 5764 5764 5764 5764 5763 5763 5763 5763 5762 5762 5762 5761 5760 5759 5758 5757 5756 5755 5755 5754 5753 5752 5751 5750 5749 5749 5748 5747 5746 5745 5745 5744 5743 5742 5741 5740 5739 5738 5737 5735 5734 5733 5732 5731 5730 5730 5728 5727 5725 5724 5723 5722 5720 5719
5762 5762 5761 5761 5761 5761 5762 5761 5761 5761 5761 5761 5761 5762 5762 5762 5761 5761 5761 5761 5760 5760 5760 5760 5760 5759 5759 5758 5757 5756 5755 5754 5753 5752 5751 5750 5750 5749 5748 5747 5746 5746 5745 5744 5744 5743 5742 5741 5740 5739 5738 5737 5736 5735 5734 5734 5733 5731 5730 5729 5728 5727 5725 5724 5722 5721 5719 5717 5716
5759 5759 5759 5759 5759 5759 5759 5759 5759 5759 5759 5759 5759 5760 5760 5759 5759 5759 5759 5758 5758 5758 5758 5758 5757 5757 5756 5755 5755 5754 5753 5752 5751 5750 5749 5748 5748 5747 5746 5745 5745 5744 5743 5742 5742 5741 5740 5739 5738 5737 5736 5735 5735 5735 5734 5732 5730 5728 5727 5726 5725 5724 5722 5721 5720 5718 5716 5715 5714
5756 5756 5756 5757 5757 5757 5757 5757 5757 5757 5757 5757 5757 5757 5757 5757 5757 5756 5756 5756 5756 5756 5756 5755 5755 5754 5754 5753 5752 5751 5750 5750 5749 5748 5747 5746 5745 5745 5744 5744 5743 5742 5741 5740 5740 5739 5738 5737 5736 5735 5735 5735 5734 5732 5730 5729 5727 5725 5725 5723 5722 5721 5720 5719 5717 5716 5715 5714 5713
5754 5754 5754 5754 5755 5755 5755 5755 5755 5755 5755 5755 5755 5755 5755 5755 5755 5754 5754 5754 5754 5754 5753 5753 5752 5752 5751 5751 5750 5750 5749 5748 5747 5746 5745 5745 5744 5743 5742 5742 5741 5740 5740 5739 5738 5737 5736 5735 5734 5733 5732 5731 5730 5729 5727 5727 5725 5724 5723 5722 5720 5719 5718 5716 5715 5714 5713 5711 5710
5752 5752 5752 5752 5752 5752 5752 5753 5753 5753 5753 5753 5753 5753 5753 5753 5752 5752 5752 5752 5751 5751 5751 5750 5750 5750 5749 5749 5748 5747 5746 5746 5745 5744 5743 5743 5742 5741 5741 5740 5739 5738 5738 5737 5736 5735 5734 5733 5732 5731 5730 5729 5728 5727 5726 5725 5724 5722 5721 5720 5718 5717 5716 5714 5713 5711 5710 5709 5707
5749 5750 5750 5750 5750 5750 5750 5750 5750 5750 5751 5751 5751 5751 5750 5750 5750 5750 5750 5750 5749 5749 5748 5748 5748 5747 5747 5746 5746 5745 5745 5744 5743 5742 5741 5741 5740 5740 5739 5738 5738 5737 5736 5735 5734 5733 5732 5731 5730 5730 5728 5727 5726 5725 5724 5723 5721 5720 5719 5718 5716 5715 5713 5712 5710 5709 5708 5706 5705
5747 5747 5748 5748 5748 5748 5748 5748 5748 5749 5749 5749 5749 5748 5748 5748 5748 5748 5748 5747 5747 5746 5746 5746 5745 5745 5744 5744 5744 5743 5742 5742 5741 5740 5740 5739 5739 5738 5737 5737 5736 5735 5734 5733 5732 5731 5730 5730 5729 5728 5726 5725 5724 5723 5721 5720 5719 5718 5716 5715 5714 5713 5711 5710 5708 5707 5705 5704 5702
5745 5745 5745 5745 5745 5745 5746 5746 5746 5746 5746 5746 5746 5746 5746 5746 5746 5745 5745 5745 5745 5744 5744 5744 5743 5743 5742 5742 5741 5741 5740 5740 5739 5739 5738 5738 5737 5736 5735 5735 5734 5733 5732 5731 5730 5730 5729 5728 5726 5725 5724 5723 5722 5721 5720 5718 5717 5716 5715 5713 5712 5710 5709 5707 5706 5704 5703 5701 5700
5743 5743 5743 5743 5743 5743 5744 5744 5744 5744 5744 5744 5744 5744 5744 5744 5743 5743 5743 5743 5742 5742 5742 5741 5741 5740 5740 5740 5739 5739 5738 5738 5737 5737 5736 5736 5735 5735 5734 5733 5732 5732 5731 5730 5729 5727 5726 5725 5724 5723 5722 5721 5720 5719 5718 5716 5715 5714 5713 5711 5710 5709 5707 5705 5704 5702 5700 5699 5697
5740 5740 5741 5741 5741 5741 5741 5741 5741 5741 5742 5742 5742 5742 5742 5741 5741 5741 5740 5740 5740 5740 5740 5739 5739 5738 5738 5738 5737 5737 5736 5736 5735 5735 5735 5734 5733 5733 5732 5731 5731 5730 5729 5728 5727 5725 5724 5723 5722 5721 5720 5719 5718 5717 5715 5714 5713 5712 5710 5709 5708 5706 5705 5703 5701 5700 5698 5697 5695
5738 5738 5738 5739 5739 5739 5739 5739 5739 5739 5740 5740 5740 5740 5740 5739 5739 5739 5739 5738 5738 5738 5737 5737 5737 5736 5736 5735 5735 5735 5735 5734 5734 5733 5733 5732 5731 5731 5730 5730 5729 5728 5727 5726 5725 5724 5723 5721 5720 5719 5718 5717 5716 5715 5714 5712 5711 5710 5708 5707 5705 5704 5703 5701 5699 5698 5696 5694 5693
5735 5736 5736 5736 5736 5737 5737 5737 5737 5737 5737 5737 5737 5737 5737 5737 5737 5736 5736 5736 5736 5735 5735 5735 5735 5734 5734 5734 5733 5733 5733 5732 5732 5731 5731 5730 5730 5729 5728 5728 5727 5726 5725 5725 5724 5722 5721 5720 5719 5718 5717 5715 5714 5713 5712 5710 5709 5708 5706 5705 5704 5702 5700 5699 5697 5695 5694 5692 5690
5733 5734 5734 5734 5734 5735 5735 5735 5735 5735 5735 5735 5735 5735 5735 5735 5735 5735 5734 5734 5734 5734 5733 5733 5733 5732 5732 5732 5732 5731 5731 5730 5730 5730 5729 5729 5728 5727 5726 5726 5725 5724 5723 5722 5721 5720 5720 5719 5717 5716 5715 5714 5712 5711 5710 5709 5707 5706 5704 5703 5701 5700 5698 5696 5695 5693 5691 5690 5688
5731 5731 5732 5732 5732 5732 5732 5732 5733 5733 5733 5733 5733 5733 5733 5733 5733 5732 5732 5732 5732 5731 5731 5731 5731 5731 5730 5730 5730 5730 5729 5729 5729 5728 5728 5727 5726 5725 5725 5724 5723 5722 5721 5720 5720 5719 5718 5717 5715 5715 5713 5712 5711 5710 5708 5707 5705 5704 5702 5700 5699 5697 5696 5694 5692 5690 5689 5687 5685
5729 5729 5729 5730 5730 5730 5730 5730 5730 5730 5731 5731 5731 5731 5731 5731 5731 5730 5730 5730 5730 5730 5730 5730 5729 5729 5729 5728 5728 5728 5728 5727 5727 5726 5726 5725 5725 5724 5723 5722 5721 5720 5720 5719 5718 5717 5716 5715 5714 5713 5711 5710 5709 5708 5706 5705 5703 5701 5700 5698 5697 5695 5693 5692 5690 5688 5686 5685 5683
5726 5727 5727 5727 5728 5728 5728 5728 5728 5728 5729 5729 5729 5729 5729 5729 5729 5729 5728 5728 5728 5728 5728 5728 5728 5727 5727 5727 5726 5726 5726 5725 5725 5725 5724 5723 5723 5722 5721 5720 5719 5718 5718 5717 5716 5715 5714 5713 5712 5711 5710 5708 5707 5705 5704 5703 5701 5699 5698 5696 5695 5693 5691 5689 5688 5686 5684 5683 5681
5724 5725 5725 5725 5725 5725 5726 5726 5726 5726 5727 5727 5727 5727 5727 5727 5727 5727 5726 5726 5726 5726 5726 5726 5726 5725 5725 5725 5725 5725 5724 5724 5723 5723 5722 5721 5721 5720 5719 5718 5717 5717 5716 5715 5714 5713 5712 5711 5710 5709 5708 5706 5705 5703 5702 5700 5699 5697 5695 5694 5692 5690 5689 5687 5685 5684 5682 5680 5679
5722 5722 5722 5723 5723 5723 5724 5724 5724 5725 5725 5725 5725 5725 5725 5725 5725 5725 5725 5725 5725 5725 5725 5724 5724 5724 5724 5723 5723 5723 5722 5722 5721 5721 5720 5720 5719 5718 5717 5717 5716 5715 5714 5713 5712 5711 5710 5709 5708 5707 5705 5704 5703 5701 5700 5698 5697 5695 5693 5692 5690 5688 5687 5685 5683 5681 5680 5678 5676
5720 5720 5720 5720 5721 5721 5721 5722 5722 5722 5723 5723 5723 5723 5723 5723 5723 5723 5723 5723 5723 5723 5723 5723 5722 5722 5722 5722 5721 5721 5720 5720 5720 5719 5718 5718 5717 5716 5716 5715 5714 5713 5712 5711 5710 5710 5708 5707 5706 5705 5704 5702 5701 5699 5698 5696 5695 5693 5691 5690 5688 5686 5685 5683 5681 5679 5677 5676 5674
5717 5718 5718 5718 5719 5719 5720 5720 5720 5720 5721 5721 5721 5721 5721 5721 5721 5721 5721 5721 5721 5721 5721 5721 5721 5720 5720 5720 5720 5719 5719 5718 5718 5717 5716 5716 5715 5715 5714 5713 5712 5711 5710 5710 5709 5708 5707 5705 5704 5703 5702 5700 5699 5697 5696 5694 5693 5691 5689 5687 5686 5684 5682 5680 5679 5677 5675 5673 5671
5715 5715 5716 5716 5717 5717 5718 5718 5718 5719 5719 5719 5719 5719 5719 5720 5720 5720 5720 5720 5720 5720 5719 5719 5719 5719 5719 5718 5718 5717 5717 5716 5716 5715 5715 5714 5714 5713 5712 5711 5710 5710 5709 5708 5707 5706 5705 5704 5702 5701 5700 5699 5697 5695 5694 5692 5690 5689 5687 5685 5683 5682 5680 5678 5676 5675 5673 5671 5669
5713 5714 5714 5715 5715 5715 5716 5716 5716 5717 5717 5717 5717 5718 5718 5718 5718 5718 5718 5718 5718 5718 5718 5718 5717 5717 5717 5716 5716 5716 5715 5715 5714 5714 5713 5713 5712 5711 5710 5710 5709 5708 5707 5706 5705 5704 5703 5702 5700 5699 5698 5696 5695 5693 5691 5690 5688 5686 5685 5683 5681 5680 5678 5676 5674 5672 5670 5669 5667
5711 5711 5712 5713 5713 5714 5714 5714 5715 5715 5715 5715 5715 5716 5716 5716 5716 5716 5716 5716 5716 5716 5716 5716 5716 5715 5715 5715 5715 5714 5714 5713 5713 5712 5712 5711 5710 5710 5709 5708 5707 5706 5705 5704 5703 5702 5701 5700 5699 5697 5695 5694 5693 5691 5689 5688 5686 5684 5683 5681 5679 5677 5675 5674 5672 5670 5668 5666 5665
5709 5710 5710 5711 5711 5712 5712 5713 5713 5713 5713 5714 5714 5714 5714 5714 5715 5715 5715 5715 5715 5715 5715 5715 5714 5714 5714 5713 5713 5713 5712 5712 5711 5710 5710 5709 5709 5708 5707 5706 5705 5705 5704 5703 5701 5700 5699 5698 5696 5695 5693 5692 5690 5689 5687 5685 5684 5682 5680 5679 5677 5675 5674 5672 5670 5668 5666 5664 5662
5707 5708 5709 5709 5710 5710 5710 5711 5711 5711 5712 5712 5712 5712 5713 5713 5713 5713 5713 5713 5713 5713 5713 5713 5713 5712 5712 5712 5711 5711 5710 5710 5710 5709 5708 5708 5707 5706 5705 5705 5704 5703 5702 5700 5700 5698 5697 5695 5694 5693 5691 5690 5688 5686 5685 5683 5682 5680 5678 5676 5675 5673 5671 5670 5668 5666 5664 5662 5660
5705 5706 5707 5707 5708 5708 5709 5709 5710 5710 5710 5710 5710 5711 5711 5711 5711 5711 5711 5712 5712 5712 5711 5711 5711 5711 5710 5710 5710 5710 5709 5708 5708 5707 5706 5706 5705 5705 5704 5703 5702 5701 5700 5699 5697 5696 5695 5693 5692 5690 5689 5688 5686 5684 5683 5681 5680 5678 5676 5674 5672 5671 5669 5667 5665 5664 5661 5660 5658
5704 5704 5705 5705 5706 5706 5707 5707 5708 5708 5708 5709 5709 5709 5709 5710 5710 5710 5710 5710 5710 5710 5710 5710 5710 5709 5709 5709 5708 5708 5707 5707 5706 5705 5705 5704 5704 5703 5702 5701 5700 5699 5698 5696 5695 5694 5693 5691 5690 5688 5687 5685 5684 5682 5680 5679 5677 5675 5674 5672 5670 5669 5667 5665 5663 5661 5659 5657 5655
5702 5703 5703 5704 5704 5705 5705 5705 5706 5706 5707 5707 5707 5707 5708 5708 5708 5709 5709 5709 5709 5709 5709 5708 5708 5708 5708 5707 5707 5706 5706 5705 5705 5704 5703 5702 5702 5701 5700 5699 5698 5697 5696 5695 5693 5692 5691 5689 5688 5686 5685 5683 5681 5680 5678 5677 5675 5673 5671 5670 5668 5666 5664 5662 5660 5658 5656 5655 5653
5700 5701 5701 5702 5702 5703 5703 5704 5704 5705 5705 5705 5706 5706 5706 5706 5707 5707 5707 5707 5707 5707 5707 5707 5707 5706 5706 5705 5705 5705 5704 5703 5703 5702 5701 5701 5700 5699 5698 5697 5696 5695 5694 5692 5691 5690 5688 5687 5685 5684 5682 5681 5679 5678 5676 5674 5673 5671 5669 5667 5665 5664 5662 5660 5658 5656 5654 5652 5650
5698 5699 5700 5700 5700 5701 5702 5702 5702 5703 5703 5704 5704 5705 5705 5705 5705 5705 5705 5705 5705 5705 5705 5705 5705 5705 5705 5704 5704 5703 5702 5702 5701 5700 5700 5699 5698 5697 5696 5695 5694 5693 5691 5690 5689 5688 5686 5685 5683 5682 5680 5678 5677 5675 5674 5672 5670 5669 5667 5665 5663 5661 5659 5657 5655 5653 5651 5649 5647
5696 5697 5698 5698 5699 5699 5700 5700 5701 5701 5702 5702 5703 5703 5703 5704 5704 5704 5704 5704 5704 5704 5704 5704 5704 5703 5703 5702 5702 5701 5701 5700 5700 5699 5698 5697 5696 5695 5694 5693 5692 5691 5689 5688 5687 5685 5684 5682 5681 5679 5678 5676 5675 5673 5671 5670 5668 5666 5664 5662 5660 5659 5657 5655 5653 5650 5649 5646 5644
5695 5695 5696 5696 5697 5698 5698 5699 5699 5700 5700 5701 5701 5701 5702 5702 5702 5702 5703 5703 5703 5702 5702 5702 5702 5702 5701 5701 5700 5700 5699 5698 5698 5697 5696 5695 5694 5693 5692 5691 5690 5689 5687 5686 5685 5683 5682 5680 5679 5677 5675 5674 5672 5670 5669 5667 5665 5664 5662 5660 5658 5656 5654 5652 5650 5648 5646 5644 5642
5693 5694 5694 5695 5695 5696 5696 5697 5698 5698 5699 5699 5700 5700 5700 5700 5701 5701 5701 5701 5701 5701 5701 5700 5700 5700 5700 5699 5698 5698 5697 5697 5696 5695 5694 5693 5692 5691 5690 5689 5688 5686 5685 5684 5682 5681 5680 5678 5676 5675 5673 5672 5670 5668 5667 5665 5663 5661 5660 5658 5656 5654 5652 5650 5647 5645 5643 5641 5639
5691 5692 5692 5693 5694 5694 5695 5695 5696 5697 5697 5697 5698 5698 5699 5699 5699 5699 5699 5699 5699 5699 5699 5699 5699 5698 5698 5697 5697 5696 5695 5695 5694 5693 5692 5691 5690 5689 5688 5687 5686 5685 5683 5682 5680 5679 5677 5676 5674 5673 5671 5670 5668 5666 5664 5663 5661 5659 5657 5655 5653 5651 5649 5647 5645 5643 5641 5639 5636
5689 5690 5690 5691 5692 5693 5693 5694 5695 5695 5695 5696 5696 5697 5697 5697 5698 5698 5698 5698 5698 5698 5698 5697 5697 5697 5696 5696 5695 5695 5694 5693 5692 5691 5690 5689 5688 5687 5686 5685 5684 5682 5681 5680 5678 5677 5675 5674 5672 5670 5669 5667 5665 5664 5662 5660 5659 5657 5655 5653 5651 5649 5647 5645 5643 5640 5638 5636 5634
5688 5688 5689 5690 5690 5691 5692 5692 5693 5693 5694 5694 5695 5695 5695 5696 5696 5696 5696 5696 5696 5696 5696 5696 5695 5695 5695 5694 5693 5692 5692 5691 5690 5689 5688 5687 5686 5685 5684 5683 5681 5680 5679 5677 5676 5674 5673 5671 5670 5668 5666 5665 5663 5661 5660 5658 5656 5655 5653 5651 5649 5646 5645 5642 5640 5638 5635 5633 5631
5686 5687 5687 5688 5689 5690 5690 5691 5691 5692 5692 5693 5693 5694 5694 5694 5695 5695 5695 5695 5695 5695 5694 5694 5694 5693 5693 5692 5691 5690 5690 5689 5688 5687 5686 5685 5684 5683 5682 5680 5679 5678 5676 5675 5674 5672 5670 5669 5668 5666 5664 5663 5661 5659 5657 5656 5654 5652 5650 5648 5646 5644 5642 5640 5638 5635 5633 5630 5628
5684 5685 5686 5686 5687 5688 5689 5689 5690 5690 5691 5691 5692 5692 5692 5693 5693 5693 5693 5693 5693 5693 5692 5692 5692 5691 5691 5690 5690 5689 5688 5687 5686 5685 5684 5683 5682 5681 5680 5678 5677 5675 5674 5673 5671 5670 5668 5667 5665 5664 5662 5660 5659 5657 5655 5653 5652 5650 5648 5646 5644 5642 5640 5637 5635 5633 5630 5628 5625
5682 5683 5684 5685 5686 5686 5687 5688 5688 5689 5689 5690 5690 5690 5691 5691 5691 5691 5691 5691 5691 5691 5690 5690 5690 5689 5689 5688 5687 5687 5686 5685 5684 5683 5682 5681 5680 5679 5677 5676 5675 5673 5672 5670 5669 5668 5666 5665 5663 5661 5660 5658 5656 5655 5653 5651 5649 5648 5646 5644 5642 5640 5637 5635 5632 5630 5628 5626 5623